Weather History for Moffett NAS, CA

Change the Weather History Date:

Sunday, April 27, 2014

  Actual Average Record
Temperature  
Mean Temperature 59 °F 60 °F  
Max Temperature 66 °F 70 °F 92 °F (2004)
Min Temperature 51 °F 51 °F 38 °F (1955)
Degree Days  
Heating Degree Days 6    
Month to date heating degree days 121  
Since 1 July heating degree days 1733  
Cooling Degree Days 0    
Month to date cooling degree days 8  
Year to date cooling degree days 12  
Growing Degree Days 8 (Base 50)    
Moisture  
Dew Point 44 °F    
Average Humidity 60    
Maximum Humidity 71    
Minimum Humidity 48    
Precipitation  
Precipitation T in 0.02 in 0.69 in (1983)
Month to date precipitation 0.86 0.90  
Year to date precipitation 5.18 8.98  
Since 1 July precipitation 6.44 14.03  
Sea Level Pressure  
Sea Level Pressure 30.11 in    
Wind  
Wind Speed 9 mph (East)    
Max Wind Speed 21 mph    
Max Gust Speed 25 mph    
Visibility 10 miles    
Events      
T = Trace of Precipitation, MM = Missing Value Source: NWS Daily Summary

Daily Weather History Graph

Daily Weather History Graph

Search for Another Location

Airport:

Trip Planner

Search our weather history database for the weather conditions in past years. The results will help you decide how hot, cold, wet, or windy it might be!

Date:

Astronomy

Apr. 27, 2014 Rise Set
Actual Time 6:17 AM PDT 7:54 PM PDT
Civil Twilight 5:49 AM PDT 8:22 PM PDT
Nautical Twilight 5:16 AM PDT 8:55 PM PDT
Astronomical Twilight 4:41 AM PDT 9:31 PM PDT
Moon 5:19 AM PDT (4/27) 6:35 PM PDT (4/27)
Length of Visible Light 14h 32m
Length of Day
13h 36m
Waning Crescent, 3% of the Moon is Illuminated
Apr 27
Waning Crescent
Apr 28
New
May 6
First Quarter
May 14
Full
May 21
Last Quarter

Hourly Weather History & Observations

Time (PDT) Temp. Dew Point Humidity Pressure Visibility Wind Dir Wind Speed Gust Speed Precip Events Conditions
12:56 AM 53.1 °F 42.1 °F 66% 30.11 in 10.0 mi Calm Calm - N/A   Overcast
1:56 AM 53.1 °F 42.1 °F 66% 30.10 in 10.0 mi Calm Calm - N/A   Partly Cloudy
2:56 AM 52.0 °F 42.1 °F 69% 30.08 in 10.0 mi SE 3.5 mph - N/A   Overcast
3:56 AM 52.0 °F 41.0 °F 66% 30.09 in 10.0 mi SE 4.6 mph - N/A   Overcast
4:56 AM 52.0 °F 43.0 °F 71% 30.08 in 10.0 mi ESE 5.8 mph - 0.00 in   Overcast
5:56 AM 51.1 °F 42.1 °F 71% 30.07 in 10.0 mi SE 6.9 mph - N/A   Overcast
6:56 AM 52.0 °F 42.1 °F 69% 30.07 in 10.0 mi SE 10.4 mph - N/A   Mostly Cloudy
7:28 AM 51.8 °F 42.8 °F 71% 30.07 in 10.0 mi SE 9.2 mph - N/A   Overcast
7:56 AM 53.1 °F 43.0 °F 69% 30.08 in 10.0 mi SE 11.5 mph - N/A   Overcast
8:13 AM 53.6 °F 42.8 °F 67% 30.08 in 10.0 mi SE 6.9 mph - N/A   Overcast
8:56 AM 55.0 °F 45.0 °F 69% 30.09 in 10.0 mi ESE 11.5 mph - N/A   Overcast
9:56 AM 57.9 °F 46.0 °F 65% 30.10 in 10.0 mi ESE 9.2 mph - N/A   Overcast
10:56 AM 61.0 °F 46.9 °F 60% 30.11 in 10.0 mi Calm Calm - N/A   Overcast
11:17 AM 60.8 °F 48.2 °F 63% 30.11 in 10.0 mi Variable 3.5 mph - N/A   Overcast
11:56 AM 62.1 °F 48.9 °F 62% 30.12 in 10.0 mi North 11.5 mph - N/A   Mostly Cloudy
12:56 PM 63.0 °F 48.0 °F 58% 30.11 in 10.0 mi North 13.8 mph - N/A   Clear
1:56 PM 64.0 °F 48.0 °F 56% 30.11 in 10.0 mi North 17.3 mph - N/A   Clear
2:56 PM 66.0 °F 46.0 °F 48% 30.10 in 10.0 mi NNW 16.1 mph 23.0 mph N/A   Clear
3:56 PM 64.0 °F 45.0 °F 50% 30.09 in 10.0 mi NNW 15.0 mph 25.3 mph N/A   Clear
4:56 PM 63.0 °F 43.0 °F 48% 30.10 in 10.0 mi WNW 11.5 mph 20.7 mph N/A   Clear
5:56 PM 62.1 °F 42.1 °F 48% 30.10 in 10.0 mi WNW 9.2 mph 17.3 mph N/A   Clear
6:56 PM 59.0 °F 39.9 °F 49% 30.13 in 10.0 mi WNW 9.2 mph 20.7 mph N/A   Clear
7:56 PM 57.0 °F 43.0 °F 59% 30.13 in 10.0 mi WNW 9.2 mph - N/A   Clear
8:56 PM 55.0 °F 45.0 °F 69% 30.16 in 10.0 mi Calm Calm - N/A   Clear
9:56 PM 55.0 °F 45.0 °F 69% 30.16 in 10.0 mi Variable 3.5 mph - N/A   Clear
10:56 PM 53.1 °F 44.1 °F 71% 30.16 in 10.0 mi Calm Calm - N/A   Clear
11:56 PM 53.1 °F 44.1 °F 71% 30.17 in 10.0 mi Calm Calm - N/A   Clear